SHT22M EGLL-EGJB

Flight info

Callsign SHT22M
Flight time 0h 35m
Altitude 20000
Route GASGU N514 EVTES/N0378F190 N621 SAM/N0373F180 N63 LELNA
Aircraft A320/M-SDE3FGHIRWY/LB1

Departure

Time 2026-04-26 19:50
Airport London Heathrow Airport (EGLL)

Arrival

Time 2026-04-26 20:26
Airport Guernsey Airport (EGJB)
Time Latitude Longitude Altitude Speed Heading
2026-04-26 18:54 51.47187 -0.48606 87 ft 0 kts 269°
2026-04-26 19:32 51.47187 -0.48589 87 ft 4 kts 269°
2026-04-26 19:33 51.47187 -0.48546 87 ft 4 kts 270°
2026-04-26 19:33 51.47185 -0.48504 88 ft 4 kts 291°
2026-04-26 19:33 51.47171 -0.48476 89 ft 4 kts 352°
2026-04-26 19:33 51.47158 -0.48475 88 ft 0 kts 359°
2026-04-26 19:39 51.47170 -0.48475 89 ft 4 kts 359°
2026-04-26 19:39 51.47205 -0.48475 88 ft 7 kts 359°
2026-04-26 19:39 51.47257 -0.48457 88 ft 7 kts 40°
2026-04-26 19:40 51.47267 -0.48425 89 ft 4 kts 70°
2026-04-26 19:40 51.47256 -0.48376 89 ft 6 kts 136°
2026-04-26 19:40 51.47201 -0.48360 87 ft 9 kts 180°
2026-04-26 19:40 51.47128 -0.48360 87 ft 12 kts 179°
2026-04-26 19:41 51.47053 -0.48359 87 ft 10 kts 179°
2026-04-26 19:41 51.46980 -0.48358 87 ft 10 kts 181°
2026-04-26 19:41 51.46901 -0.48358 87 ft 12 kts 180°
2026-04-26 19:41 51.46857 -0.48358 87 ft 10 kts 180°
2026-04-26 19:42 51.46819 -0.48357 89 ft 3 kts 179°
2026-04-26 19:42 51.46788 -0.48357 87 ft 6 kts 179°
2026-04-26 19:42 51.46746 -0.48389 91 ft 9 kts 239°
2026-04-26 19:42 51.46740 -0.48496 87 ft 11 kts 271°
2026-04-26 19:43 51.46741 -0.48639 87 ft 14 kts 269°
2026-04-26 19:43 51.46702 -0.48749 91 ft 12 kts 195°
2026-04-26 19:43 51.46618 -0.48760 91 ft 11 kts 197°
2026-04-26 19:43 51.46598 -0.48772 90 ft 0 kts 200°
2026-04-26 19:47 51.46586 -0.48779 88 ft 7 kts 198°
2026-04-26 19:47 51.46500 -0.48765 88 ft 11 kts 145°
2026-04-26 19:47 51.46477 -0.48648 88 ft 12 kts 89°
2026-04-26 19:48 51.46478 -0.48519 88 ft 2 kts 89°
2026-04-26 19:49 51.46478 -0.48518 88 ft 1 kts 90°
2026-04-26 19:49 51.46478 -0.48282 89 ft 56 kts 90°
2026-04-26 19:49 51.46480 -0.47212 87 ft 132 kts 89°
2026-04-26 19:50 51.46491 -0.45418 250 ft 177 kts 89°
2026-04-26 19:50 51.46518 -0.43454 1117 ft 184 kts 89°
2026-04-26 19:50 51.46464 -0.41246 1476 ft 209 kts 101°
2026-04-26 19:50 51.45859 -0.38993 1892 ft 235 kts 123°
2026-04-26 19:51 51.44848 -0.36795 2535 ft 250 kts 128°
2026-04-26 19:51 51.43722 -0.34604 3394 ft 258 kts 132°
2026-04-26 19:51 51.42224 -0.32985 4223 ft 267 kts 162°
2026-04-26 19:51 51.40370 -0.32793 5097 ft 273 kts 188°
2026-04-26 19:52 51.38531 -0.33622 5983 ft 278 kts 205°
2026-04-26 19:52 51.36945 -0.35428 6787 ft 284 kts 222°
2026-04-26 19:52 51.35532 -0.37518 7870 ft 271 kts 224°
2026-04-26 19:52 51.34175 -0.39594 8895 ft 266 kts 225°
2026-04-26 19:53 51.32870 -0.41641 9982 ft 258 kts 224°
2026-04-26 19:53 51.31507 -0.43650 10416 ft 278 kts 226°
2026-04-26 19:53 51.30317 -0.46226 10648 ft 300 kts 243°
2026-04-26 19:53 51.29530 -0.49444 10842 ft 322 kts 253°
2026-04-26 19:54 51.28891 -0.52943 11318 ft 333 kts 254°
2026-04-26 19:54 51.28276 -0.56529 12003 ft 336 kts 255°
2026-04-26 19:54 51.27650 -0.60136 12719 ft 338 kts 253°
2026-04-26 19:54 51.26986 -0.63747 13447 ft 340 kts 252°
2026-04-26 19:55 51.25980 -0.67161 14140 ft 342 kts 234°
2026-04-26 19:55 51.24314 -0.69877 14747 ft 346 kts 218°
2026-04-26 19:55 51.22366 -0.72167 15347 ft 349 kts 217°
2026-04-26 19:55 51.20388 -0.74448 15924 ft 353 kts 217°
2026-04-26 19:56 51.18387 -0.76753 16488 ft 357 kts 217°
2026-04-26 19:56 51.16367 -0.79079 17051 ft 360 kts 217°
2026-04-26 19:56 51.14322 -0.81432 17650 ft 364 kts 217°
2026-04-26 19:56 51.12255 -0.83805 18226 ft 368 kts 217°
2026-04-26 19:57 51.10167 -0.86198 18777 ft 372 kts 217°
2026-04-26 19:57 51.08060 -0.88612 19313 ft 375 kts 217°
2026-04-26 19:57 51.05933 -0.91048 19871 ft 378 kts 217°
2026-04-26 19:57 51.03791 -0.93501 20202 ft 380 kts 217°
2026-04-26 19:58 51.01638 -0.95956 20267 ft 386 kts 217°
2026-04-26 19:58 50.99439 -0.98460 20300 ft 391 kts 217°
2026-04-26 19:58 50.97223 -1.00980 20301 ft 392 kts 217°
2026-04-26 19:58 50.95003 -1.03502 20299 ft 393 kts 217°
2026-04-26 19:59 50.92781 -1.06024 20298 ft 393 kts 217°
2026-04-26 19:59 50.90559 -1.08542 20301 ft 393 kts 217°
2026-04-26 19:59 50.88335 -1.11062 20299 ft 393 kts 217°
2026-04-26 19:59 50.86173 -1.13513 20336 ft 385 kts 218°
2026-04-26 20:00 50.84022 -1.15942 20399 ft 385 kts 217°
2026-04-26 20:00 50.81829 -1.18408 20295 ft 390 kts 217°
2026-04-26 20:00 50.79608 -1.20914 20300 ft 391 kts 217°
2026-04-26 20:00 50.77389 -1.23415 20301 ft 392 kts 217°
2026-04-26 20:01 50.75168 -1.25914 20300 ft 392 kts 217°
2026-04-26 20:01 50.72948 -1.28409 20300 ft 392 kts 217°
2026-04-26 20:01 50.70726 -1.30899 20302 ft 392 kts 217°
2026-04-26 20:01 50.68500 -1.33390 20301 ft 392 kts 217°
2026-04-26 20:02 50.66279 -1.35874 20301 ft 392 kts 217°
2026-04-26 20:02 50.64056 -1.38356 20302 ft 392 kts 217°
2026-04-26 20:02 50.61829 -1.40842 20294 ft 392 kts 217°
2026-04-26 20:02 50.60356 -1.42484 20294 ft 392 kts 217°
2026-04-26 20:03 50.57410 -1.45770 20296 ft 392 kts 217°
2026-04-26 20:03 50.55154 -1.48284 20297 ft 392 kts 217°
2026-04-26 20:03 50.52930 -1.50762 20295 ft 392 kts 217°
2026-04-26 20:03 50.50731 -1.53206 20295 ft 392 kts 217°
2026-04-26 20:04 50.48499 -1.55678 20296 ft 392 kts 217°
2026-04-26 20:04 50.46268 -1.58151 20297 ft 392 kts 217°
2026-04-26 20:04 50.44012 -1.60651 20299 ft 393 kts 217°
2026-04-26 20:04 50.41810 -1.63085 20301 ft 393 kts 217°
2026-04-26 20:05 50.39574 -1.65551 20292 ft 393 kts 217°
2026-04-26 20:05 50.37340 -1.68014 20292 ft 393 kts 217°
2026-04-26 20:05 50.35105 -1.70477 20296 ft 393 kts 217°
2026-04-26 20:05 50.32867 -1.72935 20297 ft 393 kts 217°
2026-04-26 20:06 50.30628 -1.75388 20296 ft 393 kts 217°
2026-04-26 20:06 50.28387 -1.77841 20298 ft 393 kts 217°
2026-04-26 20:06 50.26148 -1.80292 20297 ft 393 kts 217°
2026-04-26 20:06 50.23910 -1.82745 20299 ft 393 kts 217°
2026-04-26 20:07 50.21670 -1.85201 20308 ft 393 kts 217°
2026-04-26 20:07 50.19433 -1.87648 20309 ft 393 kts 216°
2026-04-26 20:07 50.17196 -1.90087 20298 ft 392 kts 216°
2026-04-26 20:07 50.14959 -1.92525 20303 ft 392 kts 216°
2026-04-26 20:08 50.12725 -1.94957 20302 ft 392 kts 216°
2026-04-26 20:08 50.10490 -1.97388 20304 ft 392 kts 216°
2026-04-26 20:08 50.08253 -1.99815 20304 ft 392 kts 216°
2026-04-26 20:08 50.06019 -2.02234 20304 ft 391 kts 216°
2026-04-26 20:09 50.03783 -2.04653 20298 ft 391 kts 216°
2026-04-26 20:09 50.01549 -2.07065 20298 ft 391 kts 216°
2026-04-26 20:09 49.99312 -2.09482 20300 ft 391 kts 216°
2026-04-26 20:09 49.97079 -2.11882 20292 ft 388 kts 216°
2026-04-26 20:10 49.94872 -2.14174 20196 ft 376 kts 215°
2026-04-26 20:10 49.92679 -2.16400 19540 ft 378 kts 214°
2026-04-26 20:10 49.90466 -2.18620 18944 ft 379 kts 214°
2026-04-26 20:10 49.88259 -2.20826 18318 ft 374 kts 214°
2026-04-26 20:11 49.86090 -2.22995 17476 ft 366 kts 214°
2026-04-26 20:11 49.83998 -2.25096 17024 ft 361 kts 214°
2026-04-26 20:11 49.81907 -2.27204 16545 ft 357 kts 214°
2026-04-26 20:12 49.77792 -2.31359 15568 ft 350 kts 213°
2026-04-26 20:12 49.75738 -2.33429 15080 ft 347 kts 213°
2026-04-26 20:12 49.73751 -2.35428 14608 ft 344 kts 213°
2026-04-26 20:12 49.71754 -2.37438 14135 ft 341 kts 213°
2026-04-26 20:13 49.69748 -2.39366 13625 ft 339 kts 208°
2026-04-26 20:13 49.67665 -2.41053 13058 ft 337 kts 208°
2026-04-26 20:13 49.65590 -2.42735 12516 ft 336 kts 208°
2026-04-26 20:13 49.63520 -2.44412 11975 ft 336 kts 208°
2026-04-26 20:14 49.61450 -2.46087 11438 ft 336 kts 208°
2026-04-26 20:14 49.59382 -2.47757 10898 ft 336 kts 208°
2026-04-26 20:14 49.57326 -2.49420 10566 ft 329 kts 209°
2026-04-26 20:14 49.55354 -2.51011 10433 ft 309 kts 208°
2026-04-26 20:15 49.53507 -2.52495 10235 ft 294 kts 208°
2026-04-26 20:15 49.51713 -2.53939 10019 ft 288 kts 210°
2026-04-26 20:15 49.49895 -2.55266 9645 ft 290 kts 199°
2026-04-26 20:15 49.47904 -2.55572 9287 ft 289 kts 173°
2026-04-26 20:16 49.46016 -2.54548 8623 ft 292 kts 147°
2026-04-26 20:16 49.44591 -2.52340 7885 ft 295 kts 120°
2026-04-26 20:16 49.43928 -2.49372 7111 ft 297 kts 93°
2026-04-26 20:16 49.43933 -2.46197 6327 ft 298 kts 86°
2026-04-26 20:17 49.43992 -2.43002 5537 ft 300 kts 87°
2026-04-26 20:17 49.43776 -2.39827 4795 ft 301 kts 105°
2026-04-26 20:17 49.42880 -2.36928 4086 ft 300 kts 126°
2026-04-26 20:17 49.41997 -2.35331 3668 ft 295 kts 133°
2026-04-26 20:18 49.40186 -2.32414 3450 ft 266 kts 133°
2026-04-26 20:18 49.38984 -2.30425 3395 ft 241 kts 125°
2026-04-26 20:18 49.38347 -2.28213 3341 ft 219 kts 97°
2026-04-26 20:18 49.38444 -2.26011 3316 ft 198 kts 70°
2026-04-26 20:19 49.39104 -2.24291 3271 ft 180 kts 46°
2026-04-26 20:19 49.40072 -2.23236 3216 ft 164 kts 23°
2026-04-26 20:19 49.41137 -2.22838 3160 ft 156 kts
2026-04-26 20:19 49.42202 -2.23032 3133 ft 155 kts 342°
2026-04-26 20:20 49.43148 -2.23763 3093 ft 152 kts 323°
2026-04-26 20:20 49.43872 -2.24945 3058 ft 153 kts 304°
2026-04-26 20:20 49.44285 -2.26453 3024 ft 155 kts 282°
2026-04-26 20:20 49.44333 -2.28111 2986 ft 156 kts 269°
2026-04-26 20:21 49.44291 -2.29778 2956 ft 156 kts 268°
2026-04-26 20:21 49.44250 -2.31447 2922 ft 156 kts 268°
2026-04-26 20:21 49.44208 -2.33114 2885 ft 156 kts 268°
2026-04-26 20:21 49.44166 -2.34773 2836 ft 155 kts 268°
2026-04-26 20:22 49.44124 -2.36432 2809 ft 156 kts 268°
2026-04-26 20:22 49.44097 -2.37523 2811 ft 152 kts 268°
2026-04-26 20:22 49.44055 -2.39143 2787 ft 151 kts 268°
2026-04-26 20:22 49.44013 -2.40761 2677 ft 152 kts 268°
2026-04-26 20:23 49.43971 -2.42382 2505 ft 152 kts 268°
2026-04-26 20:23 49.43928 -2.44042 2284 ft 159 kts 267°
2026-04-26 20:23 49.43884 -2.45745 2098 ft 160 kts 267°
2026-04-26 20:23 49.43838 -2.47460 1894 ft 160 kts 268°
2026-04-26 20:24 49.43793 -2.49160 1675 ft 160 kts 268°
2026-04-26 20:24 49.43748 -2.50875 1480 ft 161 kts 268°
2026-04-26 20:24 49.43704 -2.52578 1214 ft 159 kts 268°
2026-04-26 20:24 49.43663 -2.54254 983 ft 156 kts 269°
2026-04-26 20:25 49.43617 -2.55939 769 ft 157 kts 269°
2026-04-26 20:25 49.43594 -2.57040 610 ft 154 kts 269°
2026-04-26 20:25 49.43528 -2.59198 409 ft 151 kts 268°
2026-04-26 20:25 49.43488 -2.60661 344 ft 104 kts 267°
2026-04-26 20:26 49.43468 -2.61297 355 ft 22 kts 267°
2026-04-26 20:26 49.43403 -2.61330 351 ft 15 kts 143°
2026-04-26 20:26 49.43378 -2.61290 337 ft 15 kts 129°
2026-04-26 20:27 49.43374 -2.61283 337 ft 15 kts 128°